User: anonymous
Location: Waldport
(44.4270°N, 124.0680°W)
Time: 02:22:50
(UTC-07:00)
Language:

Cosmos 1570 Rocket - Orbit

View from above orbital plane
View from above orbital plane
View from above satellite
View from above satellite

Ground track
Ground track

The orbit data is extracted from the following two-line orbital elements,

1 15032U 84056B   14107.96441887  .00000299  00000-0  11525-3 0  3681
2 15032 074.0739 029.3590 0016638 125.4981 305.9579 14.34357263561126
Epoch (UTC): 17 April 2014 23:08:45
Eccentricity: 0.0016638
inclination: 74.0739°
perigee height: 765 km
apogee height: 789 km
right ascension of ascending node: 29.3590°
argument of perigee: 125.4981°
revolutions per day: 14.34357263
mean anomaly at epoch: 305.9579°
orbit number at epoch: 56112

The dashed part of the orbit path shows where the satellite is in the earth's shadow,  

DLR